,,,PA_Meas_PMT16A,,PR_Meas_QMR101_102,,RH_Meas_QMH101,,SR_Meas_QMS101,,TA_Meas_QMH101,,GenWind,,GenWind,
date,time,status,PA,status,PR,status,RH,status,SR,status,TA,status,DirAvg,status,SpdAvg,
2010-08-31, 00:00:04,VALID,1009.9,VALID,0,VALID,103.474,VALID,0.105969,VALID,22.1144,VALID,7,VALID,0,
2010-08-31, 00:01:04,VALID,1009.9,VALID,0,VALID,103.481,VALID,0.105969,VALID,22.0949,VALID,9,VALID,0.119141,
2010-08-31, 00:02:04,VALID,1009.91,VALID,0,VALID,103.489,VALID,0.105969,VALID,22.0949,VALID,12,VALID,0.178516,
2010-08-31, 00:03:04,VALID,1009.91,VALID,0,VALID,103.481,VALID,0,VALID,22.0949,VALID,55,VALID,0.0570313,
2010-08-31, 00:04:04,VALID,1009.9,VALID,0,VALID,103.466,VALID,0.105969,VALID,22.0949,VALID,55,VALID,0.221484,
2010-08-31, 00:05:04,VALID,1009.91,VALID,0,VALID,103.481,VALID,0.105969,VALID,22.0949,VALID,55,VALID,0.0433594,
2010-08-31, 00:06:04,VALID,1009.88,VALID,0,VALID,103.451,VALID,0,VALID,22.0966,VALID,55,VALID,0.280859,
2010-08-31, 00:07:04,VALID,1009.87,VALID,0,VALID,103.466,VALID,0,VALID,22.0966,VALID,55,VALID,0.0992187,
2010-08-31, 00:08:04,VALID,1009.83,VALID,0,VALID,103.474,VALID,0,VALID,22.0771,VALID,55,VALID,0.442969,
2010-08-31, 00:09:04,VALID,1009.8,VALID,0,VALID,103.459,VALID,0,VALID,22.0771,VALID,55,VALID,0.235938,
2010-08-31, 00:10:04,VALID,1009.78,VALID,0,VALID,103.443,VALID,0,VALID,22.0966,VALID,55,VALID,0,
2010-08-31, 00:11:04,VALID,1009.75,VALID,0,VALID,103.428,VALID,0,VALID,22.0966,VALID,55,VALID,0,
2010-08-31, 00:12:04,VALID,1009.72,VALID,0,VALID,103.443,VALID,0,VALID,22.0966,VALID,55,VALID,0.00585938,
2010-08-31, 00:13:04,VALID,1009.72,VALID,0,VALID,103.459,VALID,0,VALID,22.1177,VALID,55,VALID,0.394922,
2010-08-31, 00:14:04,VALID,1009.73,VALID,0,VALID,103.443,VALID,0,VALID,22.0966,VALID,55,VALID,0,
2010-08-31, 00:15:04,VALID,1009.7,VALID,0,VALID,103.451,VALID,0,VALID,22.0966,VALID,55,VALID,0.271094,
2010-08-31, 00:16:04,VALID,1009.73,VALID,0,VALID,103.443,VALID,0,VALID,22.0771,VALID,55,VALID,0.296875,
2010-08-31, 00:17:04,VALID,1009.74,VALID,0,VALID,103.459,VALID,0,VALID,22.0771,VALID,55,VALID,0.268359,
2010-08-31, 00:18:04,VALID,1009.73,VALID,0,VALID,103.466,VALID,0,VALID,22.0771,VALID,55,VALID,0.257031,
2010-08-31, 00:19:04,VALID,1009.73,VALID,0,VALID,103.443,VALID,0,VALID,22.0771,VALID,55,VALID,0.189453,
2010-08-31, 00:20:04,VALID,1009.7,VALID,0,VALID,103.428,VALID,0,VALID,22.0966,VALID,65,VALID,0.608594,
2010-08-31, 00:21:04,VALID,1009.69,VALID,0,VALID,103.443,VALID,0,VALID,22.0966,VALID,80,VALID,0.566016,
2010-08-31, 00:22:04,VALID,1009.7,VALID,0,VALID,103.42,VALID,0,VALID,22.0966,VALID,80,VALID,0.290234,
2010-08-31, 00:23:04,VALID,1009.67,VALID,0,VALID,103.428,VALID,0,VALID,22.0966,VALID,55,VALID,0.451562,
2010-08-31, 00:24:04,VALID,1009.67,VALID,0,VALID,103.42,VALID,0,VALID,22.1177,VALID,65,VALID,0.688672,
2010-08-31, 00:25:04,VALID,1009.66,VALID,0,VALID,103.428,VALID,0,VALID,22.1177,VALID,72,VALID,0.490625,
2010-08-31, 00:26:04,VALID,1009.66,VALID,0,VALID,103.443,VALID,0,VALID,22.0966,VALID,31,VALID,0.424609,
2010-08-31, 00:27:04,VALID,1009.65,VALID,0,VALID,103.436,VALID,0,VALID,22.1161,VALID,31,VALID,0.163672,
2010-08-31, 00:28:04,VALID,1009.67,VALID,0,VALID,103.413,VALID,0,VALID,22.0966,VALID,33,VALID,0.177344,
2010-08-31, 00:29:04,VALID,1009.66,VALID,0,VALID,103.436,VALID,0,VALID,22.1372,VALID,48,VALID,0.441016,
2010-08-31, 00:30:04,VALID,1009.67,VALID,0,VALID,103.436,VALID,0,VALID,22.1161,VALID,61,VALID,0.454688,
2010-08-31, 00:31:04,VALID,1009.67,VALID,0,VALID,103.428,VALID,0,VALID,22.0966,VALID,55,VALID,0.0269531,
2010-08-31, 00:32:04,VALID,1009.62,VALID,0,VALID,103.436,VALID,0,VALID,22.1161,VALID,61,VALID,0.329297,
2010-08-31, 00:33:04,VALID,1009.63,VALID,0,VALID,103.413,VALID,0,VALID,22.1355,VALID,61,VALID,0.264453,
2010-08-31, 00:34:04,VALID,1009.62,VALID,0,VALID,103.451,VALID,0,VALID,22.1161,VALID,76,VALID,0.472266,
2010-08-31, 00:35:04,VALID,1009.59,VALID,0,VALID,103.428,VALID,0,VALID,22.1372,VALID,80,VALID,0.641016,
2010-08-31, 00:36:04,VALID,1009.59,VALID,0,VALID,103.436,VALID,0,VALID,22.1161,VALID,90,VALID,0.614062,
2010-08-31, 00:37:04,VALID,1009.58,VALID,0,VALID,103.42,VALID,0,VALID,22.1372,VALID,90,VALID,0.322656,
2010-08-31, 00:38:04,VALID,1009.58,VALID,0,VALID,103.428,VALID,0,VALID,22.1161,VALID,74,VALID,0.619141,
2010-08-31, 00:39:04,VALID,1009.61,VALID,0,VALID,103.405,VALID,0,VALID,22.155,VALID,97,VALID,0.461328,
2010-08-31, 00:40:04,VALID,1009.66,VALID,0,VALID,103.398,VALID,0,VALID,22.155,VALID,96,VALID,0.654297,
2010-08-31, 00:41:04,VALID,1009.63,VALID,0,VALID,103.405,VALID,0,VALID,22.1745,VALID,112,VALID,0.935156,
2010-08-31, 00:42:04,VALID,1009.65,VALID,0,VALID,103.39,VALID,0,VALID,22.1745,VALID,119,VALID,0.814453,
2010-08-31, 00:43:04,VALID,1009.66,VALID,0,VALID,103.436,VALID,0,VALID,22.155,VALID,113,VALID,0.905859,
2010-08-31, 00:44:04,VALID,1009.67,VALID,0,VALID,103.451,VALID,0,VALID,22.1745,VALID,91,VALID,0.820703,
2010-08-31, 00:45:04,VALID,1009.67,VALID,0,VALID,103.413,VALID,0,VALID,22.2134,VALID,117,VALID,0.810156,
2010-08-31, 00:46:04,VALID,1009.66,VALID,0,VALID,103.413,VALID,0,VALID,22.2134,VALID,107,VALID,0.69375,
2010-08-31, 00:47:04,VALID,1009.68,VALID,0,VALID,103.436,VALID,0,VALID,22.2329,VALID,90,VALID,0.909375,
2010-08-31, 00:48:04,VALID,1009.67,VALID,0,VALID,103.436,VALID,0,VALID,22.2524,VALID,84,VALID,1.03672,
2010-08-31, 00:49:04,VALID,1009.67,VALID,0,VALID,103.428,VALID,0,VALID,22.2719,VALID,61,VALID,0.496094,
2010-08-31, 00:50:04,VALID,1009.69,VALID,0,VALID,103.466,VALID,0,VALID,22.293,VALID,66,VALID,0.874219,
2010-08-31, 00:51:04,VALID,1009.7,VALID,0,VALID,103.489,VALID,0,VALID,22.2719,VALID,72,VALID,0.469531,
2010-08-31, 00:52:04,VALID,1009.71,VALID,0,VALID,103.481,VALID,0,VALID,22.2524,VALID,90,VALID,0.960938,
2010-08-31, 00:53:04,VALID,1009.72,VALID,0,VALID,103.52,VALID,0,VALID,22.2524,VALID,71,VALID,1.03711,
2010-08-31, 00:54:04,VALID,1009.74,VALID,0,VALID,103.542,VALID,0,VALID,22.2329,VALID,86,VALID,0.598828,
2010-08-31, 00:55:04,VALID,1009.75,VALID,0,VALID,103.542,VALID,0,VALID,22.2118,VALID,81,VALID,0.682422,
2010-08-31, 00:56:04,VALID,1009.74,VALID,0,VALID,103.512,VALID,0,VALID,22.2329,VALID,92,VALID,0.558984,
2010-08-31, 00:57:04,VALID,1009.78,VALID,0,VALID,103.535,VALID,0,VALID,22.2134,VALID,67,VALID,0.75625,
2010-08-31, 00:58:04,VALID,1009.75,VALID,0,VALID,103.558,VALID,0,VALID,22.2134,VALID,38,VALID,0.740234,
2010-08-31, 00:59:04,VALID,1009.79,VALID,0,VALID,103.527,VALID,0,VALID,22.2134,VALID,39,VALID,0.200781,
2010-08-31, 01:00:04,VALID,1009.78,VALID,0,VALID,103.581,VALID,0,VALID,22.194,VALID,61,VALID,0.559375,
2010-08-31, 01:01:04,VALID,1009.77,VALID,0,VALID,103.535,VALID,0,VALID,22.1745,VALID,55,VALID,0.410547,
2010-08-31, 01:02:04,VALID,1009.77,VALID,0,VALID,103.512,VALID,0,VALID,22.194,VALID,55,VALID,0.171484,
2010-08-31, 01:03:04,VALID,1009.81,VALID,0,VALID,103.55,VALID,0,VALID,22.194,VALID,15,VALID,0.324609,
2010-08-31, 01:04:04,VALID,1009.8,VALID,0,VALID,103.588,VALID,0,VALID,22.1745,VALID,358,VALID,0.492578,
2010-08-31, 01:05:04,VALID,1009.83,VALID,0,VALID,103.565,VALID,0,VALID,22.155,VALID,350,VALID,0.721484,
2010-08-31, 01:06:04,VALID,1009.82,VALID,0,VALID,103.558,VALID,0,VALID,22.155,VALID,348,VALID,0.174219,
2010-08-31, 01:07:04,VALID,1009.81,VALID,0,VALID,103.542,VALID,0,VALID,22.1762,VALID,57,VALID,0.373437,
2010-08-31, 01:08:04,VALID,1009.82,VALID,0,VALID,103.542,VALID,0,VALID,22.1355,VALID,70,VALID,0.152344,
2010-08-31, 01:09:04,VALID,1009.82,VALID,0,VALID,103.558,VALID,0,VALID,22.155,VALID,70,VALID,0.173438,
2010-08-31, 01:10:04,VALID,1009.8,VALID,0,VALID,103.558,VALID,0,VALID,22.1567,VALID,70,VALID,0,
2010-08-31, 01:11:04,VALID,1009.79,VALID,0,VALID,103.535,VALID,0,VALID,22.155,VALID,70,VALID,0.00429688,
2010-08-31, 01:12:04,VALID,1009.79,VALID,0,VALID,103.55,VALID,0,VALID,22.155,VALID,108,VALID,0.391406,
2010-08-31, 01:13:04,VALID,1009.8,VALID,0,VALID,103.573,VALID,0,VALID,22.1355,VALID,108,VALID,0.100781,
2010-08-31, 01:14:04,VALID,1009.78,VALID,0,VALID,103.55,VALID,0,VALID,22.1144,VALID,108,VALID,0,
2010-08-31, 01:15:04,VALID,1009.79,VALID,0,VALID,103.565,VALID,0,VALID,22.1355,VALID,108,VALID,0.224609,
2010-08-31, 01:16:04,VALID,1009.78,VALID,0,VALID,103.55,VALID,0,VALID,22.1355,VALID,108,VALID,0.297266,
2010-08-31, 01:17:04,VALID,1009.78,VALID,0,VALID,103.535,VALID,0,VALID,22.1355,VALID,100,VALID,0.137891,
2010-08-31, 01:18:04,VALID,1009.74,VALID,0,VALID,103.55,VALID,0,VALID,22.1355,VALID,65,VALID,0.521484,
2010-08-31, 01:19:04,VALID,1009.76,VALID,0,VALID,103.535,VALID,0,VALID,22.1355,VALID,56,VALID,0.224609,
2010-08-31, 01:20:04,VALID,1009.73,VALID,0,VALID,103.535,VALID,0,VALID,22.1355,VALID,71,VALID,0.386328,
2010-08-31, 01:21:04,VALID,1009.7,VALID,0,VALID,103.52,VALID,0,VALID,22.155,VALID,121,VALID,0.662109,
2010-08-31, 01:22:04,VALID,1009.71,VALID,0,VALID,103.504,VALID,0,VALID,22.1762,VALID,108,VALID,0.670313,
2010-08-31, 01:23:04,VALID,1009.69,VALID,0,VALID,103.527,VALID,0,VALID,22.1339,VALID,108,VALID,0.453516,
2010-08-31, 01:24:04,VALID,1009.67,VALID,0,VALID,103.527,VALID,0,VALID,22.1745,VALID,105,VALID,0.45,
2010-08-31, 01:25:04,VALID,1009.68,VALID,0,VALID,103.527,VALID,0,VALID,22.155,VALID,53,VALID,0.637891,
2010-08-31, 01:26:04,VALID,1009.63,VALID,0,VALID,103.527,VALID,0,VALID,22.155,VALID,53,VALID,0.694141,
2010-08-31, 01:27:04,VALID,1009.64,VALID,0,VALID,103.535,VALID,0,VALID,22.155,VALID,53,VALID,0.379687,
2010-08-31, 01:28:04,VALID,1009.62,VALID,0,VALID,103.527,VALID,0,VALID,22.1762,VALID,58,VALID,0.590625,
2010-08-31, 01:29:04,VALID,1009.6,VALID,0,VALID,103.542,VALID,0,VALID,22.155,VALID,59,VALID,0.353125,
2010-08-31, 01:30:04,VALID,1009.58,VALID,0,VALID,103.527,VALID,0,VALID,22.155,VALID,59,VALID,0,
2010-08-31, 01:31:04,VALID,1009.6,VALID,0,VALID,103.512,VALID,0,VALID,22.1745,VALID,84,VALID,0.661328,
2010-08-31, 01:32:04,VALID,1009.58,VALID,0,VALID,103.535,VALID,0,VALID,22.1745,VALID,104,VALID,0.883203,
2010-08-31, 01:33:04,VALID,1009.57,VALID,0,VALID,103.535,VALID,0,VALID,22.155,VALID,104,VALID,0.248437,
2010-08-31, 01:34:04,VALID,1009.58,VALID,0,VALID,103.512,VALID,0,VALID,22.155,VALID,72,VALID,0.790234,
2010-08-31, 01:35:04,VALID,1009.58,VALID,0,VALID,103.52,VALID,0,VALID,22.1745,VALID,72,VALID,0.260938,
2010-08-31, 01:36:04,VALID,1009.56,VALID,0,VALID,103.497,VALID,0,VALID,22.155,VALID,53,VALID,0.341016,
2010-08-31, 01:37:04,VALID,1009.55,VALID,0,VALID,103.504,VALID,0,VALID,22.155,VALID,75,VALID,0.729688,
2010-08-31, 01:38:04,VALID,1009.52,VALID,0,VALID,103.527,VALID,0,VALID,22.1762,VALID,54,VALID,0.285156,
2010-08-31, 01:39:04,VALID,1009.5,VALID,0,VALID,103.504,VALID,0,VALID,22.155,VALID,74,VALID,0.535937,
2010-08-31, 01:40:04,VALID,1009.46,VALID,0,VALID,103.504,VALID,0,VALID,22.1567,VALID,85,VALID,0.313672,
2010-08-31, 01:41:04,VALID,1009.48,VALID,0,VALID,103.489,VALID,0,VALID,22.155,VALID,85,VALID,0.196484,
2010-08-31, 01:42:04,VALID,1009.46,VALID,0,VALID,103.481,VALID,0,VALID,22.1745,VALID,85,VALID,0.396875,
2010-08-31, 01:43:04,VALID,1009.47,VALID,0,VALID,103.474,VALID,0,VALID,22.1745,VALID,85,VALID,0.348047,
2010-08-31, 01:44:04,VALID,1009.44,VALID,0,VALID,103.497,VALID,0,VALID,22.155,VALID,79,VALID,0.707422,
2010-08-31, 01:45:04,VALID,1009.44,VALID,0,VALID,103.497,VALID,0,VALID,22.1355,VALID,53,VALID,0.216797,
2010-08-31, 01:46:04,VALID,1009.45,VALID,0,VALID,103.497,VALID,0,VALID,22.0966,VALID,53,VALID,0,
2010-08-31, 01:47:04,VALID,1009.44,VALID,0,VALID,103.489,VALID,0,VALID,22.0949,VALID,55,VALID,0.192578,
2010-08-31, 01:48:04,VALID,1009.46,VALID,0,VALID,103.481,VALID,0,VALID,22.1372,VALID,55,VALID,0.24375,
2010-08-31, 01:49:04,VALID,1009.47,VALID,0,VALID,103.459,VALID,0,VALID,22.1355,VALID,56,VALID,0.330078,
2010-08-31, 01:50:04,VALID,1009.45,VALID,0,VALID,103.413,VALID,0,VALID,22.155,VALID,84,VALID,0.505469,
2010-08-31, 01:51:04,VALID,1009.46,VALID,0,VALID,103.428,VALID,0,VALID,22.1533,VALID,96,VALID,0.0535156,
2010-08-31, 01:52:04,VALID,1009.48,VALID,0,VALID,103.42,VALID,0.105969,VALID,22.1533,VALID,74,VALID,0.530078,
2010-08-31, 01:53:04,VALID,1009.46,VALID,0,VALID,103.451,VALID,0,VALID,22.1533,VALID,70,VALID,0.699609,
2010-08-31, 01:54:04,VALID,1009.46,VALID,0,VALID,103.436,VALID,0.105969,VALID,22.1339,VALID,40,VALID,0.455859,
2010-08-31, 01:55:04,VALID,1009.46,VALID,0,VALID,103.443,VALID,0.105969,VALID,22.1355,VALID,28,VALID,0.268359,
2010-08-31, 01:56:04,VALID,1009.46,VALID,0,VALID,103.451,VALID,0.105969,VALID,22.1144,VALID,5,VALID,0.299609,
2010-08-31, 01:57:04,VALID,1009.42,VALID,0,VALID,103.436,VALID,0.105969,VALID,22.1144,VALID,5,VALID,0,
2010-08-31, 01:58:04,VALID,1009.41,VALID,0,VALID,103.443,VALID,0.105969,VALID,22.1144,VALID,5,VALID,0,
2010-08-31, 01:59:04,VALID,1009.4,VALID,0,VALID,103.42,VALID,0,VALID,22.0949,VALID,5,VALID,0.0996094,
2010-08-31, 02:00:04,VALID,1009.38,VALID,0,VALID,103.398,VALID,0.105969,VALID,22.1144,VALID,5,VALID,0,
2010-08-31, 02:01:04,VALID,1009.37,VALID,0,VALID,103.398,VALID,0.105969,VALID,22.1339,VALID,5,VALID,0,
2010-08-31, 02:02:04,VALID,1009.36,VALID,0,VALID,103.42,VALID,0.105969,VALID,22.0949,VALID,5,VALID,0.0480469,
2010-08-31, 02:03:04,VALID,1009.38,VALID,0,VALID,103.413,VALID,0,VALID,22.0949,VALID,5,VALID,0,
2010-08-31, 02:04:04,VALID,1009.35,VALID,0,VALID,103.398,VALID,0,VALID,22.1144,VALID,5,VALID,0,
2010-08-31, 02:05:04,VALID,1009.36,VALID,0,VALID,103.344,VALID,0.105969,VALID,22.1355,VALID,5,VALID,0,
2010-08-31, 02:06:04,VALID,1009.34,VALID,0,VALID,103.344,VALID,0,VALID,22.1339,VALID,5,VALID,0,
2010-08-31, 02:07:04,VALID,1009.35,VALID,0,VALID,103.352,VALID,0,VALID,22.1339,VALID,5,VALID,0,
2010-08-31, 02:08:04,VALID,1009.31,VALID,0,VALID,103.398,VALID,0.105969,VALID,22.1144,VALID,33,VALID,0,
2010-08-31, 02:09:04,VALID,1009.31,VALID,0,VALID,103.398,VALID,0.105969,VALID,22.0949,VALID,33,VALID,0,
2010-08-31, 02:10:04,VALID,1009.32,VALID,0,VALID,103.398,VALID,0.105969,VALID,22.1161,VALID,33,VALID,0,
2010-08-31, 02:11:04,VALID,1009.34,VALID,0,VALID,103.39,VALID,0,VALID,22.0754,VALID,33,VALID,0,
2010-08-31, 02:12:04,VALID,1009.34,VALID,0,VALID,103.375,VALID,0.105969,VALID,22.0754,VALID,33,VALID,0,
2010-08-31, 02:13:04,VALID,1009.33,VALID,0,VALID,103.375,VALID,0.105969,VALID,22.0966,VALID,55,VALID,0,
2010-08-31, 02:14:04,VALID,1009.32,VALID,0,VALID,103.359,VALID,0.105969,VALID,22.0966,VALID,103,VALID,0,
2010-08-31, 02:15:04,VALID,1009.35,VALID,0,VALID,103.375,VALID,0.105969,VALID,22.0754,VALID,103,VALID,0,
2010-08-31, 02:16:04,VALID,1009.36,VALID,0,VALID,103.375,VALID,0,VALID,22.056,VALID,64,VALID,0,
2010-08-31, 02:17:04,VALID,1009.36,VALID,0,VALID,103.352,VALID,0.105969,VALID,22.0754,VALID,66,VALID,0,
2010-08-31, 02:18:04,VALID,1009.36,VALID,0,VALID,103.344,VALID,0.105969,VALID,22.056,VALID,66,VALID,0,
2010-08-31, 02:19:04,VALID,1009.37,VALID,0,VALID,103.359,VALID,0.105969,VALID,22.056,VALID,66,VALID,0,
2010-08-31, 02:20:04,VALID,1009.35,VALID,0,VALID,103.337,VALID,0.105969,VALID,22.0771,VALID,66,VALID,0,
2010-08-31, 02:21:04,VALID,1009.36,VALID,0,VALID,103.321,VALID,0,VALID,22.0966,VALID,66,VALID,0.396484,
2010-08-31, 02:22:04,VALID,1009.37,VALID,0,VALID,103.337,VALID,0,VALID,22.0771,VALID,66,VALID,0.0808594,
2010-08-31, 02:23:04,VALID,1009.37,VALID,0,VALID,103.321,VALID,0,VALID,22.0771,VALID,79,VALID,0.372656,
2010-08-31, 02:24:04,VALID,1009.36,VALID,0,VALID,103.321,VALID,0.105969,VALID,22.0754,VALID,79,VALID,0.08125,
2010-08-31, 02:25:04,VALID,1009.35,VALID,0,VALID,103.329,VALID,0.105969,VALID,22.0966,VALID,90,VALID,0.555469,
2010-08-31, 02:26:04,VALID,1009.35,VALID,0,VALID,103.306,VALID,0,VALID,22.0754,VALID,87,VALID,0.548437,
2010-08-31, 02:27:04,VALID,1009.33,VALID,0,VALID,103.314,VALID,0.105969,VALID,22.0966,VALID,86,VALID,0.38125,
2010-08-31, 02:28:04,VALID,1009.33,VALID,0,VALID,103.329,VALID,0.105969,VALID,22.0949,VALID,86,VALID,0.529688,
2010-08-31, 02:29:04,VALID,1009.33,VALID,0,VALID,103.314,VALID,0.105969,VALID,22.0949,VALID,86,VALID,0.373437,
2010-08-31, 02:30:04,VALID,1009.38,VALID,0,VALID,103.298,VALID,0.105969,VALID,22.0754,VALID,86,VALID,0.229687,
2010-08-31, 02:31:04,VALID,1009.39,VALID,0,VALID,103.298,VALID,0.105969,VALID,22.0949,VALID,87,VALID,0.627734,
2010-08-31, 02:32:04,VALID,1009.4,VALID,0,VALID,103.291,VALID,0,VALID,22.0949,VALID,87,VALID,0.702344,
2010-08-31, 02:33:04,VALID,1009.42,VALID,0,VALID,103.298,VALID,0.105969,VALID,22.0754,VALID,89,VALID,0.413672,
2010-08-31, 02:34:04,VALID,1009.4,VALID,0,VALID,103.268,VALID,0.105969,VALID,22.0949,VALID,98,VALID,0.836328,
2010-08-31, 02:35:04,VALID,1009.4,VALID,0,VALID,103.298,VALID,0.105969,VALID,22.1161,VALID,86,VALID,0.589844,
2010-08-31, 02:36:04,VALID,1009.39,VALID,0,VALID,103.298,VALID,0,VALID,22.0771,VALID,82,VALID,0.661719,
2010-08-31, 02:37:04,VALID,1009.38,VALID,0,VALID,103.283,VALID,0,VALID,22.0966,VALID,98,VALID,0.782422,
2010-08-31, 02:38:04,VALID,1009.36,VALID,0,VALID,103.283,VALID,0,VALID,22.0966,VALID,107,VALID,0.970312,
2010-08-31, 02:39:04,VALID,1009.35,VALID,0,VALID,103.283,VALID,0,VALID,22.0966,VALID,93,VALID,0.903516,
2010-08-31, 02:40:04,VALID,1009.29,VALID,0,VALID,103.314,VALID,0,VALID,22.0983,VALID,98,VALID,0.753125,
2010-08-31, 02:41:04,VALID,1009.27,VALID,0,VALID,103.283,VALID,0,VALID,22.0966,VALID,89,VALID,0.622656,
2010-08-31, 02:42:04,VALID,1009.25,VALID,0,VALID,103.26,VALID,0,VALID,22.1177,VALID,84,VALID,0.423828,
2010-08-31, 02:43:04,VALID,1009.24,VALID,0,VALID,103.245,VALID,0,VALID,22.1161,VALID,106,VALID,0.621484,
2010-08-31, 02:44:04,VALID,1009.22,VALID,0,VALID,103.253,VALID,0,VALID,22.1567,VALID,97,VALID,0.380469,
2010-08-31, 02:45:04,VALID,1009.21,VALID,0,VALID,103.245,VALID,0,VALID,22.1372,VALID,78,VALID,0.557813,
2010-08-31, 02:46:04,VALID,1009.2,VALID,0,VALID,103.268,VALID,0,VALID,22.0966,VALID,75,VALID,0.703516,
2010-08-31, 02:47:04,VALID,1009.18,VALID,0,VALID,103.306,VALID,0,VALID,22.0966,VALID,65,VALID,0.311328,
2010-08-31, 02:48:04,VALID,1009.19,VALID,0,VALID,103.306,VALID,0,VALID,22.0966,VALID,65,VALID,0.269531,
2010-08-31, 02:49:04,VALID,1009.21,VALID,0,VALID,103.276,VALID,0,VALID,22.0966,VALID,65,VALID,0,
2010-08-31, 02:50:04,VALID,1009.18,VALID,0,VALID,103.291,VALID,0,VALID,22.1177,VALID,65,VALID,0,
2010-08-31, 02:51:04,VALID,1009.19,VALID,0,VALID,103.298,VALID,0,VALID,22.1161,VALID,65,VALID,0.0304688,
2010-08-31, 02:52:04,VALID,1009.16,VALID,0,VALID,103.291,VALID,0.105969,VALID,22.1161,VALID,65,VALID,0,
2010-08-31, 02:53:04,VALID,1009.15,VALID,0,VALID,103.306,VALID,0,VALID,22.0966,VALID,65,VALID,0,
2010-08-31, 02:54:04,VALID,1009.11,VALID,0,VALID,103.298,VALID,0,VALID,22.0966,VALID,65,VALID,0,
2010-08-31, 02:55:04,VALID,1009.11,VALID,0,VALID,103.314,VALID,0,VALID,22.0966,VALID,65,VALID,0.342187,
2010-08-31, 02:56:04,VALID,1009.09,VALID,0,VALID,103.329,VALID,0,VALID,22.0966,VALID,65,VALID,0,
2010-08-31, 02:57:04,VALID,1009.08,VALID,0,VALID,103.337,VALID,0.105969,VALID,22.1161,VALID,65,VALID,0,
2010-08-31, 02:58:04,VALID,1009.05,VALID,0,VALID,103.329,VALID,0,VALID,22.0771,VALID,65,VALID,0,
2010-08-31, 02:59:04,VALID,1009.01,VALID,0,VALID,103.314,VALID,0,VALID,22.1161,VALID,65,VALID,0,
2010-08-31, 03:00:04,VALID,1009,VALID,0,VALID,103.314,VALID,0.105969,VALID,22.0754,VALID,65,VALID,0,
2010-08-31, 03:01:04,VALID,1009.02,VALID,0,VALID,103.314,VALID,0,VALID,22.0966,VALID,65,VALID,0,
2010-08-31, 03:02:04,VALID,1009.02,VALID,0,VALID,103.337,VALID,0,VALID,22.0949,VALID,65,VALID,0,
2010-08-31, 03:03:04,VALID,1009.06,VALID,0,VALID,103.329,VALID,0.105969,VALID,22.0966,VALID,65,VALID,0.00117188,
2010-08-31, 03:04:04,VALID,1009.05,VALID,0,VALID,103.329,VALID,0,VALID,22.0966,VALID,65,VALID,0.0394531,
2010-08-31, 03:05:04,VALID,1009.08,VALID,0,VALID,103.329,VALID,0,VALID,22.0754,VALID,65,VALID,0,
2010-08-31, 03:06:04,VALID,1009.12,VALID,0,VALID,103.337,VALID,0,VALID,22.0771,VALID,65,VALID,0,
2010-08-31, 03:07:04,VALID,1009.11,VALID,0,VALID,103.337,VALID,0,VALID,22.0983,VALID,65,VALID,0.0867188,
2010-08-31, 03:08:04,VALID,1009.11,VALID,0,VALID,103.344,VALID,0,VALID,22.0771,VALID,29,VALID,0.177734,
2010-08-31, 03:09:04,VALID,1009.11,VALID,0,VALID,103.375,VALID,0,VALID,22.0771,VALID,29,VALID,0,
2010-08-31, 03:10:04,VALID,1009.09,VALID,0,VALID,103.359,VALID,0,VALID,22.0788,VALID,29,VALID,0,
2010-08-31, 03:11:04,VALID,1009.09,VALID,0,VALID,103.375,VALID,0,VALID,22.0983,VALID,29,VALID,0,
2010-08-31, 03:12:04,VALID,1009.05,VALID,0,VALID,103.375,VALID,0,VALID,22.0788,VALID,29,VALID,0,
2010-08-31, 03:13:04,VALID,1009.07,VALID,0,VALID,103.375,VALID,0,VALID,22.0771,VALID,29,VALID,0,
2010-08-31, 03:14:04,VALID,1009.08,VALID,0,VALID,103.367,VALID,0,VALID,22.0771,VALID,29,VALID,0,
2010-08-31, 03:15:04,VALID,1009.09,VALID,0,VALID,103.382,VALID,0,VALID,22.0788,VALID,35,VALID,0.321875,
2010-08-31, 03:16:04,VALID,1009.08,VALID,0,VALID,103.398,VALID,0,VALID,22.0576,VALID,104,VALID,0.151953,
2010-08-31, 03:17:04,VALID,1009.12,VALID,0,VALID,103.382,VALID,0,VALID,22.0576,VALID,103,VALID,0.370313,
2010-08-31, 03:18:04,VALID,1009.13,VALID,0,VALID,103.382,VALID,0,VALID,22.0576,VALID,104,VALID,0.592969,
2010-08-31, 03:19:04,VALID,1009.12,VALID,0,VALID,103.367,VALID,0,VALID,22.0771,VALID,93,VALID,0.840234,
2010-08-31, 03:20:04,VALID,1009.12,VALID,0,VALID,103.375,VALID,0,VALID,22.0966,VALID,94,VALID,0.339063,
2010-08-31, 03:21:04,VALID,1009.11,VALID,0,VALID,103.382,VALID,0,VALID,22.1161,VALID,94,VALID,0.249219,
2010-08-31, 03:22:04,VALID,1009.12,VALID,0,VALID,103.39,VALID,0,VALID,22.0949,VALID,94,VALID,0.226953,
2010-08-31, 03:23:04,VALID,1009.15,VALID,0,VALID,103.39,VALID,0.105969,VALID,22.0949,VALID,92,VALID,0.242578,
2010-08-31, 03:24:04,VALID,1009.18,VALID,0,VALID,103.405,VALID,0,VALID,22.0754,VALID,92,VALID,0.114453,
2010-08-31, 03:25:04,VALID,1009.18,VALID,0,VALID,103.413,VALID,0,VALID,22.0949,VALID,91,VALID,0.254297,
2010-08-31, 03:26:04,VALID,1009.2,VALID,0,VALID,103.42,VALID,0.105969,VALID,22.0949,VALID,91,VALID,0.162109,
2010-08-31, 03:27:04,VALID,1009.2,VALID,0,VALID,103.413,VALID,0.105969,VALID,22.0949,VALID,91,VALID,0.337109,
2010-08-31, 03:28:04,VALID,1009.23,VALID,0,VALID,103.413,VALID,0.105969,VALID,22.1161,VALID,94,VALID,0.414844,
2010-08-31, 03:29:04,VALID,1009.27,VALID,0,VALID,103.42,VALID,0,VALID,22.1355,VALID,126,VALID,0.365234,
2010-08-31, 03:30:04,VALID,1009.33,VALID,0,VALID,103.42,VALID,0,VALID,22.1144,VALID,126,VALID,0.464453,
2010-08-31, 03:31:04,VALID,1009.31,VALID,0,VALID,103.451,VALID,0,VALID,22.1161,VALID,126,VALID,0.4875,
2010-08-31, 03:32:04,VALID,1009.35,VALID,0,VALID,103.459,VALID,0,VALID,22.1161,VALID,126,VALID,0.53125,
2010-08-31, 03:33:04,VALID,1009.34,VALID,0,VALID,103.466,VALID,0,VALID,22.1161,VALID,126,VALID,0.155469,
2010-08-31, 03:34:04,VALID,1009.37,VALID,0,VALID,103.443,VALID,0.105969,VALID,22.1161,VALID,126,VALID,0,
2010-08-31, 03:35:04,VALID,1009.39,VALID,0,VALID,103.459,VALID,0,VALID,22.0949,VALID,126,VALID,0.021875,
2010-08-31, 03:36:04,VALID,1009.38,VALID,0,VALID,103.474,VALID,0,VALID,22.0983,VALID,126,VALID,0.301562,
2010-08-31, 03:37:04,VALID,1009.4,VALID,0,VALID,103.481,VALID,0,VALID,22.1177,VALID,9,VALID,0.474219,
2010-08-31, 03:38:04,VALID,1009.39,VALID,0,VALID,103.489,VALID,0,VALID,22.0771,VALID,9,VALID,0.439063,
2010-08-31, 03:39:04,VALID,1009.42,VALID,0,VALID,103.497,VALID,0,VALID,22.0771,VALID,9,VALID,0.206641,
2010-08-31, 03:40:04,VALID,1009.42,VALID,0,VALID,103.489,VALID,0,VALID,22.0576,VALID,9,VALID,0.144531,
2010-08-31, 03:41:04,VALID,1009.4,VALID,0,VALID,103.497,VALID,0,VALID,22.0576,VALID,9,VALID,0,
2010-08-31, 03:42:04,VALID,1009.45,VALID,0,VALID,103.497,VALID,0,VALID,22.0382,VALID,9,VALID,0.00429688,
2010-08-31, 03:43:04,VALID,1009.42,VALID,0,VALID,103.504,VALID,0,VALID,22.0788,VALID,9,VALID,0,
2010-08-31, 03:44:04,VALID,1009.46,VALID,0,VALID,103.497,VALID,0,VALID,22.0593,VALID,9,VALID,0,
2010-08-31, 03:45:04,VALID,1009.46,VALID,0,VALID,103.504,VALID,0,VALID,22.0398,VALID,9,VALID,0.367188,
2010-08-31, 03:46:04,VALID,1009.51,VALID,0,VALID,103.512,VALID,0,VALID,22.0187,VALID,31,VALID,0.387891,